Pagrindinis puslapis
METAR-TAF:

METAR-TAF

Oro uostai :

Perryton Ochiltree County Airport

Perryton, Teksasas, Jungtinės Amerikos Valstijos

platuma: 36-24N, ilguma: 100-44W, Aukštis: 890 m

Dabartinis oras

Ataskaita buvo paskelbta 20 minutes, ne 16:35 UTC
Vėjas 4 kt iš Pietų
Temperatūra 27°C
Drėgmė 30%
Slėgis 1021 hPa
Matomumas: 16.1 km
Giedras dangus

METAR: KPYX 031635Z AUTO 18004KT 10SM CLR 27/08 A3016 RMK AO2 T02720076

Laikas: 11:55 (16:55 UTC)


TAF: trūkstamas

Orai ataskaitas ir orų prognozės (METAR, TAF).

turimą stotys yra geltonos ir raudonos taškus žemėlapyje.

Perkelti pele per norėdami pamatyti stoties vardą.

Tada spustelėkite, norėdami matyti oro stebėjimo ir prognozės.

Norėdami pakeisti žemėlapį: spustelėkite ant žalios mygtukų su juodo kryžiaus žemyn,; žalią mygtuką su brūkšneliu, jei norite nutolinti; arba žalių rodyklių gretimoms žemėlapius.


METAR-TAF: